RH
52 46 54 53 55 55 72 90 98 52 52 50 52 57 56 54 54 55 55 54 53 57 59 54 54 56 60 62 62 62 61 62 64 64 64 66 67 67 67 69 68 69 69 70
74 56 46 57 50 47 52 77 66 43 49 42 45 46 56 57 55 57 56 54 54 54 57 56 54 54 57 60 62 63 64 66 65 66 67 67 67 67 68 68 69 71 74 76
96 81 63 84 58 51 42 41 47 48 44 38 43 46 51 53 54 56 55 54 56 56 55 53 52 54 58 60 62 62 64 66 67 68 70 71 71 71 73 75 76 79 80 82
97 76 96 67 57 57 46 36 33 35 42 44 45 42 45 46 50 54 53 54 55 56 52 50 52 55 56 59 62 63 64 66 68 70 72 74 74 76 78 79 83 86 89 89
97 98 62 58 61 67 60 54 42 36 33 36 41 42 48 46 52 56 58 59 57 52 51 51 52 54 55 59 62 65 65 66 68 70 74 76 79 82 84 85 87 88 87 88
87 88 96 70 62 54 54 84 65 59 46 38 38 55 65 52 55 59 59 58 57 54 52 54 52 53 56 58 59 63 66 67 69 72 76 81 84 89 88 96 94 91 90 92
82 88 78 62 65 58 79 98 64 54 54 47 50 58 59 59 63 63 62 60 59 59 63 62 58 57 56 57 58 58 61 65 70 76 81 82 87 87 88 100 100 100 99 95
70 71 95 57 60 81 79 61 64 59 51 68 64 63 66 64 67 67 67 66 62 66 69 69 67 64 64 64 63 62 64 69 74 78 82 84 86 91 99 99 100 100 100 100
71 75 54 59 71 63 62 68 73 69 63 65 69 68 65 67 64 63 61 61 63 63 67 70 72 71 73 77 72 72 74 80 84 87 88 88 95 96 99 100 100 99 100 100
62 55 59 65 60 70 72 68 70 66 64 60 67 67 70 73 73 73 69 71 70 68 68 71 73 73 77 79 80 80 82 85 87 86 89 90 92 95 96 97 99 100 100 99
67 69 54 70 71 67 77 65 66 68 72 71 70 72 72 76 75 70 67 71 77 80 81 79 77 79 81 80 78 79 82 86 88 90 92 93 94 95 96 94 94 96 96 95
84 64 70 74 75 87 73 80 68 67 75 73 72 73 73 78 73 72 72 70 71 70 69 69 70 81 88 89 89 89 90 92 91 89 92 95 98 98 100 100 98 98 98 96
73 67 63 64 65 63 68 69 68 71 70 75 72 70 68 71 71 67 69 70 75 78 77 70 69 69 72 76 85 87 87 89 90 91 92 91 96 100 100 96 99 100 100 100
69 73 71 72 74 68 69 68 67 68 69 70 69 69 68 68 67 69 72 71 72 74 78 77 75 74 75 76 77 82 86 87 90 88 87 88 90 97 100 100 99 99 99 99
76 74 74 70 66 71 67 67 67 71 70 72 71 74 75 78 79 79 77 76 76 74 78 81 84 88 87 84 83 84 86 87 87 87 88 90 92 96 100 100 100 99 99 100
77 76 70 72 73 72 71 70 72 77 76 74 75 77 77 78 79 80 81 84 87 87 92 95 97 99 93 95 94 88 88 88 91 90 90 94 96 100 100 100 100 100 100 99
90 84 84 83 80 74 74 75 78 79 77 78 77 78 77 78 77 80 83 87 94 98 99 100 100 94 97 100 100 97 92 90 91 95 96 96 97 100 100 100 100 100 99 99
78 80 81 82 84 84 79 77 76 76 77 79 78 78 77 79 83 83 86 90 90 100 99 100 99 100 100 100 100 99 100 98 94 96 96 100 100 100 100 100 100 100 99 99
84 86 84 82 81 79 78 77 77 77 74 74 74 75 74 74 76 82 85 86 91 94 97 96 98 100 99 99 99 99 99 100 100 100 100 100 100 100 100 100 100 100 100 100
88 87 87 88 87 83 80 73 71 68 69 72 68 58 59 64 70 83 82 84 84 85 79 88 88 93 88 90 95 98 100 99 99 100 100 100 100 100 100 100 100 100 100 99
97 95 93 98 92 78 68 71 69 61 63 61 61 59 58 58 62 80 83 82 73 71 79 83 78 86 87 95 94 98 100 100 99 99 99 99 99 100 100 99 99 99 99 99
93 100 98 94 89 86 72 66 69 66 63 62 63 64 62 60 61 71 73 74 69 77 80 79 79 86 92 91 89 91 93 96 96 98 99 99 99 99 99 99 99 99 99 99
95 100 96 95 90 89 84 72 74 76 72 66 70 70 74 70 66 73 77 72 72 77 84 79 87 91 92 88 85 87 85 94 96 96 96 94 95 94 96 99 99 99 100 100
86 90 93 71 76 82 94 89 80 79 70 64 59 61 70 72 59 73 88 67 75 88 86 84 86 89 90 82 85 81 88 86 82 85 87 89 92 94 96 97 97 98 96 93
90 92 98 96 98 96 97 96 80 73 68 65 62 58 69 80 76 64 71 72 77 82 80 76 86 91 86 84 87 86 88 83 87 92 84 87 85 86 92 94 93 95 97 96
94 97 95 97 98 97 97 96 95 72 63 64 57 58 69 76 68 70 71 76 75 76 74 78 85 92 90 89 93 89 87 84 84 87 95 90 86 84 84 85 87 87 91 93
84 97 100 99 98 97 97 96 96 82 78 70 69 72 77 69 69 75 75 71 73 75 80 84 86 89 92 92 86 85 85 84 85 94 90 81 81 83 84 85 85 85 85 84
Wind_Speed
6 4 4 2 4 4 2 2 3 8 8 6 6 7 6 6 7 7 7 7 6 6 6 12 15 17 17 15 15 15 16 16 16 14 13 12 11 10 9 8 6 4 3 2
5 9 7 6 6 7 5 7 10 7 2 3 4 4 7 6 7 7 7 7 7 6 8 11 14 15 16 15 15 15 15 14 13 12 11 10 9 8 7 6 5 3 3 2
2 2 2 4 8 7 5 7 6 4 3 2 7 7 5 5 7 7 7 7 8 7 9 15 16 17 16 16 16 15 14 13 13 12 12 10 10 9 8 7 5 4 3 4
2 1 1 3 5 4 4 3 7 1 3 7 6 5 6 5 5 7 7 7 7 9 11 11 13 15 15 15 14 14 13 13 13 13 12 11 11 10 9 8 7 7 6 5
2 3 3 4 5 4 2 2 5 5 5 1 5 4 4 5 7 7 7 6 9 11 13 14 14 14 16 15 14 14 14 14 13 12 12 11 11 11 10 9 8 7 5 5
4 2 3 4 6 4 1 2 7 7 4 4 3 2 1 5 6 9 14 13 12 9 7 9 13 15 15 15 14 14 14 14 14 14 13 12 10 10 8 7 7 7 7 6
5 2 3 5 4 5 1 3 7 4 7 6 4 3 6 7 7 11 12 10 9 9 9 5 3 9 15 14 16 13 13 13 14 12 12 11 11 8 6 8 7 7 7 7
3 2 3 6 4 4 2 6 7 5 4 8 8 7 7 7 6 7 9 10 10 9 7 5 2 2 3 5 11 13 12 12 11 10 10 9 9 8 8 9 9 9 9 9
1 0 1 3 3 3 4 5 6 7 6 8 8 6 7 6 7 6 8 8 8 7 6 6 5 3 3 6 7 8 10 10 9 8 8 8 10 9 10 10 11 12 13 12
3 3 4 5 4 6 6 6 6 6 8 5 7 7 6 6 5 5 7 7 5 6 5 4 3 3 5 5 6 9 9 10 10 9 8 8 10 11 12 14 14 15 15 15
3 6 1 6 6 6 4 7 5 5 7 7 7 7 6 5 5 7 7 7 5 3 2 0 0 2 2 4 5 7 7 7 7 7 8 9 11 13 14 16 15 16 18 18
2 4 4 4 4 2 6 3 6 6 6 8 7 6 6 5 8 8 8 7 6 7 6 4 5 3 4 4 5 5 5 7 7 7 8 9 9 12 14 16 15 15 15 15
3 5 4 2 5 4 3 4 5 6 6 5 9 9 9 5 5 5 7 8 9 9 8 8 6 5 6 5 6 7 8 8 8 9 9 9 11 13 14 13 15 16 15 16
7 7 2 6 3 5 5 5 5 6 7 8 6 7 7 7 7 8 9 8 8 8 7 6 6 6 7 7 7 9 10 10 10 10 11 12 12 13 14 14 15 16 16 16
8 7 4 4 2 4 3 2 1 3 2 4 5 6 7 7 6 7 7 8 8 5 5 6 5 6 5 6 8 9 10 11 12 13 13 13 13 15 14 14 16 17 17 14
9 7 2 3 2 1 2 1 1 3 2 2 1 2 3 4 5 4 4 6 7 6 6 6 6 8 9 8 8 10 10 10 12 12 13 13 14 14 15 16 17 18 18 19
6 4 5 3 5 1 1 3 2 2 2 2 4 5 6 6 6 5 6 6 6 3 4 7 8 11 10 9 9 9 11 12 11 12 14 16 16 17 17 17 18 18 20 20
4 7 5 5 5 3 0 2 1 2 2 3 4 3 3 3 3 5 6 5 4 2 5 9 11 10 9 10 12 12 11 10 11 13 13 15 16 17 17 18 19 19 20 20
9 7 9 8 5 7 3 1 2 1 1 3 3 2 3 1 3 4 5 3 5 5 9 11 12 9 11 11 13 13 13 13 13 14 14 14 14 16 17 17 18 19 19 19
9 10 9 8 6 4 4 1 1 1 2 2 3 2 3 4 5 4 3 2 3 3 9 9 9 10 13 12 14 14 12 12 12 12 13 14 14 15 15 16 17 18 18 19
9 9 7 7 7 4 3 2 1 2 1 1 2 3 4 5 5 5 4 3 4 9 9 8 8 10 14 15 13 11 11 12 12 12 11 11 12 13 14 15 16 17 18 18
10 7 7 7 7 6 5 4 3 2 1 0 0 1 3 3 4 5 3 1 6 8 11 9 9 11 13 14 11 11 10 11 11 12 12 12 12 12 12 12 13 15 16 17
11 9 8 7 8 7 5 4 4 4 3 2 2 1 2 4 4 5 1 3 10 10 12 11 9 11 13 13 9 10 10 11 10 11 11 11 12 13 14 15 15 15 14 15
10 7 6 6 6 5 6 6 7 5 4 3 3 3 3 4 4 1 4 9 9 10 11 10 10 11 11 10 10 11 10 11 11 11 13 12 12 11 12 13 13 13 16 17
10 9 10 11 10 9 9 5 5 6 5 4 3 3 2 3 4 8 11 10 9 10 12 12 10 9 11 10 10 11 11 12 11 12 13 13 14 14 14 14 17 19 19 20
9 10 11 12 11 9 9 6 4 4 3 3 3 3 3 5 7 8 10 9 10 10 11 12 10 10 11 11 11 12 12 13 13 13 13 16 17 17 17 18 19 20 20 20
12 11 9 7 9 9 10 8 5 3 3 4 4 5 4 6 7 8 8 10 10 10 10 10 11 11 12 12 14 13 14 14 14 15 16 17 18 18 19 20 21 23 24 25
Wind_Direction
320 225 312 281 205 206 181 52 351 335 69 32 40 113 115 118 123 122 128 120 132 134 118 131 138 147 149 154 160 155 155 151 149 154 154 153 150 148 143 148 157 158 171 204
270 233 200 244 254 211 200 238 274 301 77 85 118 85 107 118 120 115 122 121 115 116 124 135 142 145 148 152 156 159 156 154 152 154 150 153 149 143 145 145 143 151 180 217
255 317 204 290 223 222 190 205 204 271 29 131 54 57 90 128 132 135 133 132 138 142 146 154 160 156 156 161 162 160 156 156 158 164 161 159 158 156 159 161 167 179 200 216
294 143 213 71 17 338 217 201 216 29 45 69 51 58 47 41 119 114 129 135 138 146 144 149 150 160 161 167 163 161 161 166 172 173 170 173 171 170 175 180 181 193 209 213
343 296 178 133 39 17 34 70 248 235 206 205 80 351 67 42 52 76 77 77 87 134 153 158 164 166 164 170 172 174 178 181 183 184 186 184 185 188 194 196 199 208 214 218
320 8 36 44 25 319 259 102 4 357 298 236 151 264 59 85 73 70 66 65 68 67 81 146 169 175 174 179 181 190 191 191 192 189 191 188 195 201 207 216 224 213 209 215
258 277 68 3 8 328 9 324 324 323 295 241 162 148 128 82 66 77 90 81 84 78 78 55 75 178 183 187 191 195 188 184 188 192 191 190 200 215 205 209 216 210 207 209
338 5 62 4 289 31 315 314 355 349 326 89 100 97 99 101 99 93 86 72 68 75 65 44 39 217 177 183 172 173 181 190 200 195 194 200 208 211 214 211 211 214 216 217
47 84 149 73 66 350 320 42 4 12 48 88 101 111 107 101 90 79 85 84 67 78 92 62 60 78 162 170 178 188 189 191 191 192 200 201 206 211 209 213 214 220 222 221
9 24 39 47 80 71 21 54 20 2 17 59 109 91 84 76 61 61 59 61 52 57 58 63 41 84 124 162 187 184 180 190 197 198 208 220 222 222 223 223 225 230 228 229
7 15 327 82 47 30 30 28 50 35 47 36 78 59 85 78 65 63 57 48 40 43 65 26 186 133 141 184 193 192 198 207 211 219 227 237 241 239 240 247 246 242 243 241
66 29 325 64 97 34 28 344 6 45 46 29 52 65 83 68 58 53 49 41 36 31 25 18 3 336 275 245 229 222 217 225 232 237 240 244 251 259 248 248 248 251 255 251
329 341 301 7 79 34 105 40 42 52 49 74 43 50 48 79 53 47 48 37 25 13 8 8 6 330 324 285 262 247 244 246 247 242 239 240 256 254 261 257 255 257 249 247
19 339 284 34 54 51 85 80 75 80 65 58 56 53 39 28 29 32 23 9 3 358 2 3 0 2 342 322 277 262 260 255 250 249 242 239 243 252 259 260 262 263 258 245
5 339 337 314 30 44 35 5 327 81 58 62 45 33 20 9 360 353 348 347 345 356 19 360 9 21 348 330 302 284 273 267 261 256 251 252 250 252 262 262 264 270 273 262
320 292 309 348 50 37 358 281 286 120 68 59 66 21 330 313 313 322 358 358 360 351 4 8 17 338 338 335 315 292 287 280 268 262 255 249 250 249 253 266 268 264 262 265
328 337 352 349 358 344 67 40 13 11 350 7 1 344 337 342 337 25 2 350 347 10 28 23 360 341 348 337 326 314 296 290 285 270 261 256 255 256 268 267 262 261 266 271
285 296 296 305 308 317 148 128 348 327 13 352 329 327 350 22 16 358 354 349 358 97 21 357 341 350 345 343 342 333 309 300 280 280 275 268 263 266 270 271 269 265 270 275
300 289 296 291 290 302 297 111 101 86 40 357 345 355 329 11 5 350 340 349 18 5 348 351 345 354 349 354 351 337 324 317 299 288 282 277 270 272 274 274 271 273 274 272
295 289 283 282 280 285 299 140 133 120 80 4 338 350 26 10 357 353 348 324 355 345 339 345 349 346 345 345 339 332 333 330 324 313 299 292 286 285 284 285 283 282 278 275
302 277 264 267 263 244 249 261 277 118 89 36 28 18 351 339 344 343 347 11 11 348 352 346 347 337 349 344 343 342 343 347 348 345 339 330 315 305 299 296 294 291 289 290
300 251 245 263 269 255 244 252 237 220 187 172 114 342 339 348 355 348 288 307 332 343 339 341 331 338 340 338 345 348 346 342 345 345 347 349 348 343 335 327 318 312 306 303
292 249 244 229 236 247 235 247 262 247 222 210 229 265 305 325 335 316 344 347 331 335 327 328 326 332 336 334 343 338 341 342 344 342 343 338 335 331 327 325 322 320 323 319
290 264 244 213 207 209 238 263 256 257 257 258 270 272 290 329 336 236 263 314 325 325 324 326 326 331 335 338 335 336 339 333 332 335 334 330 327 329 322 320 319 320 319 318
283 271 245 232 230 236 240 243 267 267 250 262 274 299 297 278 290 301 316 327 327 323 325 329 332 336 333 337 336 337 335 335 338 331 327 328 329 327 319 313 310 314 314 311
283 256 250 238 237 227 222 206 215 282 252 258 259 264 280 287 301 306 316 322 321 328 325 333 338 332 327 337 333 333 332 334 335 333 328 325 327 326 325 323 320 318 316 314
275 270 251 237 238 222 216 202 196 251 284 267 265 287 289 304 311 313 320 324 326 329 332 337 339 342 338 337 333 334 333 332 329 327 323 325 327 326 326 323 321 320 317 314